Terminal Aerodrome Forecast
Issued by NWS

Home | Current Version | Previous Version | Text Only | Print | Product List | Glossary On
Versions: 1 2 3 4 5 6 7 8 9 10 11 12 13 14 15 16
000
FTUS45 KGJT 190532
TAFASE
TAF
KASE 190532Z 1906/2006 19003KT P6SM SCT120 OVC150
     FM190700 19006KT P6SM SCT050 OVC150
      TEMPO 1911/1915 -RA BKN045
     FM191500 VRB04KT P6SM VCSH OVC050
      TEMPO 1915/1919 -RA BKN045
     FM191900 35006KT P6SM VCSH OVC040
     FM200200 18005KT P6SM OVC080=

USA.gov is the U.S. government's official web portal to all federal, state and local government web resources and services.